GW5584 Weather Reports


time (UTC)temp
F
wind
direction
speed
knots
gust
knots
rain 1hr
in
rain 24hr
in
rain mn
in
humidity
%
barometer
mb
20260906182400 100 72 1.7 5.2 0.00 0.00 0.00 35 1016.0
20260906181855 100 303 1.7 9.6 0.00 0.00 0.00 35 1016.0
20260906181352 99 141 0.0 5.2 0.00 0.00 0.00 36 1016.0
20260906180847 99 99 0.9 8.7 0.00 0.00 0.00 36 1016.0
20260906180342 101 111 1.7 5.2 0.00 0.00 0.00 34 1016.1
20260906175839 102 127 3.5 3.5 0.00 0.00 0.00 33 1016.1
20260906175334 100 325 1.7 6.1 0.00 0.00 0.00 35 1016.4
20260906174834 100 127 5.2 7.8 0.00 0.00 0.00 36 1016.3
20260906174333 100 252 0.9 4.3 0.00 0.00 0.00 36 1016.4
20260906173828 101 169 0.9 6.1 0.00 0.00 0.00 34 1016.7
20260906173324 101 138 4.3 7.0 0.00 0.00 0.00 34 1017.0
20260906172823 100 223 1.7 3.5 0.00 0.00 0.00 36 1017.0
20260906172319 100 290 2.6 2.6 0.00 0.00 0.00 37 1017.2
20260906171813 100 139 5.2 9.6 0.00 0.00 0.00 36 1017.0
20260906171308 98 108 2.6 6.1 0.00 0.00 0.00 38 1017.0
20260906170804 98 156 1.7 2.6 0.00 0.00 0.00 38 1017.3
20260906170301 98 176 1.7 4.3 0.00 0.00 0.00 38 1017.3
20260906165756 101 328 1.7 5.2 0.00 0.00 0.00 36 1017.3
20260906165256 98 315 1.7 5.2 0.00 0.00 0.00 38 1017.5
20260906164755 99 234 1.7 2.6 0.00 0.00 0.00 37 1017.6
20260906164249 98 322 1.7 2.6 0.00 0.00 0.00 37 1017.7
20260906163746 98 342 1.7 4.3 0.00 0.00 0.00 38 1017.6
20260906163242 98 170 1.7 3.5 0.00 0.00 0.00 38 1017.8
20260906162739 99 162 3.5 3.5 0.00 0.00 0.00 38 1017.8
20260906162233 100 138 2.6 4.3 0.00 0.00 0.00 38 1017.8
20260906161733 98 293 1.7 3.5 0.00 0.00 0.00 39 1017.8
20260906161232 97 246 2.6 2.6 0.00 0.00 0.00 40 1017.9
20260906160732 96 145 5.2 5.2 0.00 0.00 0.00 42 1017.6
20260906160231 98 124 2.6 5.2 0.00 0.00 0.00 40 1018.0
20260906155729 96 254 0.0 3.5 0.00 0.00 0.00 41 1017.8
20260906155224 96 359 0.9 3.5 0.00 0.00 0.00 42 1017.7
20260906154719 96 154 0.0 1.7 0.00 0.00 0.00 41 1017.7
20260906154214 95 16 0.9 2.6 0.00 0.00 0.00 43 1017.9
20260906153712 94 154 0.0 3.5 0.00 0.00 0.00 45 1017.8
20260906153207 95 243 1.7 3.5 0.00 0.00 0.00 45 1017.9
20260906152702 95 144 1.7 3.5 0.00 0.00 0.00 45 1017.8
20260906152156 95 165 2.6 3.5 0.00 0.00 0.00 46 1017.7
20260906151651 93 0 0.9 4.3 0.00 0.00 0.00 49 1017.7
20260906151147 92 0 0.0 4.3 0.00 0.00 0.00 49 1017.7
20260906150642 93 218 1.7 3.5 0.00 0.00 0.00 49 1017.7
20260906150137 92 27 0.9 2.6 0.00 0.00 0.00 50 1017.6
20260906145636 91 202 1.7 3.5 0.00 0.00 0.00 50 1017.8
20260906145131 90 10 1.7 4.3 0.00 0.00 0.00 52 1017.7
20260906144625 91 253 1.7 2.6 0.00 0.00 0.00 51 1017.8
20260906144120 91 234 2.6 2.6 0.00 0.00 0.00 50 1017.8
20260906143620 90 122 1.7 3.5 0.00 0.00 0.00 52 1017.8
20260906143117 90 226 0.9 1.7 0.00 0.00 0.00 53 1017.7
20260906142616 89 320 0.9 2.6 0.00 0.00 0.00 55 1017.6
20260906142112 88 194 0.0 2.6 0.00 0.00 0.00 55 1017.9
20260906141610 89 25 0.0 1.7 0.00 0.00 0.00 53 1017.8
20260906141106 88 100 1.7 1.7 0.00 0.00 0.00 54 1017.8
20260906140605 87 173 0.9 1.7 0.00 0.00 0.00 55 1017.8
20260906140100 85 85 1.7 1.7 0.00 0.00 0.00 58 1017.6
20260906135557 85 193 0.0 0.9 0.00 0.00 0.00 60 1017.6
20260906135053 84 211 0.9 2.6 0.00 0.00 0.00 60 1017.5
20260906134548 84 256 0.0 2.6 0.00 0.00 0.00 61 1017.5
20260906134043 84 208 1.7 2.6 0.00 0.00 0.00 62 1017.3
20260906133539 84 207 0.9 2.6 0.00 0.00 0.00 61 1017.2
20260906133034 83 165 0.9 1.7 0.00 0.00 0.00 62 1017.2
20260906132529 82 220 1.7 2.6 0.00 0.00 0.00 64 1017.2
20260906132025 82 200 0.9 1.7 0.00 0.00 0.00 65 1017.1
20260906131520 81 246 0.0 0.9 0.00 0.00 0.00 66 1017.1
20260906131016 80 246 0.0 0.9 0.00 0.00 0.00 68 1017.1
20260906130515 80 232 0.0 1.7 0.00 0.00 0.00 68 1017.0
20260906130010 80 260 0.9 1.7 0.00 0.00 0.00 68 1017.1
20260906125508 80 232 0.9 1.7 0.00 0.00 0.00 68 1017.2
20260906125007 79 273 0.9 1.7 0.00 0.00 0.00 69 1017.2
20260906124503 78 232 0.0 0.9 0.00 0.00 0.00 70 1017.0
20260906123957 77 353 0.0 1.7 0.00 0.00 0.00 72 1016.9
20260906123456 76 253 0.0 0.0 0.00 0.00 0.00 74 1016.8
20260906122956 76 217 0.9 1.7 0.00 0.00 0.00 75 1016.7
20260906122451 75 252 0.0 0.9 0.00 0.00 0.00 75 1016.8
20260906121947 75 193 0.0 0.9 0.00 0.00 0.00 76 1016.9
20260906121443 75 218 0.0 0.0 0.00 0.00 0.00 76 1016.7
20260906120940 75 212 0.0 0.0 0.00 0.00 0.00 75 1016.7
20260906120435 76 202 0.0 0.0 0.00 0.00 0.00 74 1016.5
20260906115931 76 242 0.0 0.9 0.00 0.00 0.00 75 1016.6
20260906115426 75 227 0.0 0.9 0.00 0.00 0.00 75 1016.6
20260906114921 75 306 0.0 0.9 0.00 0.00 0.00 77 1016.4
20260906114420 75 230 0.0 0.9 0.00 0.00 0.00 77 1016.5
20260906113916 75 229 0.0 0.9 0.00 0.00 0.00 76 1016.4
20260906113415 75 242 0.0 0.0 0.00 0.00 0.00 75 1016.5
20260906112911 75 315 0.0 0.0 0.00 0.00 0.00 74 1016.4
20260906112406 75 322 0.0 0.0 0.00 0.00 0.00 76 1016.6
20260906111901 75 217 0.0 0.0 0.00 0.00 0.00 77 1016.5
20260906111401 75 326 0.0 0.0 0.00 0.00 0.00 76 1016.4
20260906110856 75 344 0.0 0.9 0.00 0.00 0.00 77 1016.4
20260906110351 75 255 0.0 0.0 0.00 0.00 0.00 76 1016.3
20260906105850 75 217 0.0 0.0 0.00 0.00 0.00 76 1016.4
20260906105346 76 286 0.0 0.9 0.00 0.00 0.00 74 1016.2
20260906104842 76 288 0.9 0.9 0.00 0.00 0.00 74 1016.2
20260906104340 76 279 0.0 0.9 0.00 0.00 0.00 74 1016.3
20260906103839 76 328 0.0 0.9 0.00 0.00 0.00 74 1016.2
20260906103337 76 329 0.0 0.9 0.00 0.00 0.00 75 1016.2
20260906102834 75 281 0.0 0.9 0.00 0.00 0.00 75 1016.2
20260906102332 76 177 0.9 1.7 0.00 0.00 0.00 75 1016.1
20260906101828 75 205 0.0 0.9 0.00 0.00 0.00 76 1016.3
20260906101323 75 196 0.0 1.7 0.00 0.00 0.00 78 1016.1
20260906100819 75 184 0.0 1.7 0.00 0.00 0.00 79 1016.1
20260906100317 75 170 0.9 0.9 0.00 0.00 0.00 78 1016.2
20260906095813 75 0 0.0 0.9 0.00 0.00 0.00 79 1016.2
20260906095308 75 154 0.0 0.9 0.00 0.00 0.00 79 1016.2
20260906094807 75 173 0.0 0.0 0.00 0.00 0.00 78 1016.0
20260906094302 76 157 0.0 0.0 0.00 0.00 0.00 78 1016.1
20260906093759 76 205 0.0 0.9 0.00 0.00 0.00 77 1016.2
20260906093254 77 0 0.0 0.9 0.00 0.00 0.00 76 1016.0
20260906092749 77 56 0.9 1.7 0.00 0.00 0.00 76 1016.0
20260906092243 77 131 1.7 2.6 0.00 0.00 0.00 74 1016.0
20260906091739 78 196 0.9 2.6 0.00 0.00 0.00 73 1015.9
20260906091235 78 72 0.0 1.7 0.00 0.00 0.00 70 1015.8
20260906090732 79 4 1.7 1.7 0.00 0.00 0.00 70 1015.8
20260906090231 79 336 1.7 1.7 0.00 0.00 0.00 69 1015.8
20260906085730 80 271 1.7 2.6 0.00 0.00 0.00 67 1015.6
20260906085229 80 337 1.7 2.6 0.00 0.00 0.00 66 1015.5
20260906084724 80 271 1.7 1.7 0.00 0.00 0.00 67 1015.5
20260906084224 80 295 0.0 2.6 0.00 0.00 0.00 69 1015.6
20260906083719 80 233 1.7 1.7 0.00 0.00 0.00 67 1015.5
20260906083215 81 264 1.7 1.7 0.00 0.00 0.00 65 1015.9
20260906082710 81 220 1.7 1.7 0.00 0.00 0.00 66 1015.6
20260906082205 82 166 0.0 1.7 0.00 0.00 0.00 63 1015.8
20260906081701 82 229 0.0 1.7 0.00 0.00 0.00 63 1015.7
20260906081156 82 240 0.0 1.7 0.00 0.00 0.00 64 1015.8
20260906080652 81 190 1.7 3.5 0.00 0.00 0.00 64 1015.8
20260906080148 81 157 1.7 3.5 0.00 0.00 0.00 66 1015.8
20260906075648 80 220 0.0 2.6 0.00 0.00 0.00 67 1016.1
20260906075142 79 309 0.0 1.7 0.00 0.00 0.00 71 1016.2
20260906074638 79 210 0.9 1.7 0.00 0.00 0.00 69 1016.2
20260906074136 81 123 3.5 3.5 0.00 0.00 0.00 63 1016.3
20260906073631 81 66 0.0 0.9 0.00 0.00 0.00 61 1016.3
20260906073127 81 176 0.0 1.7 0.00 0.00 0.00 62 1016.4
20260906072622 82 23 0.0 1.7 0.00 0.00 0.00 61 1016.1
20260906072118 81 293 0.0 1.7 0.00 0.00 0.00 60 1016.1
20260906071614 81 205 1.7 1.7 0.00 0.00 0.00 60 1016.1
20260906071108 81 304 0.0 0.0 0.00 0.00 0.00 60 1016.2
20260906070605 81 310 0.0 1.7 0.00 0.00 0.00 60 1015.9
20260906070100 81 291 0.0 0.0 0.00 0.00 0.00 61 1015.9
20260906065559 81 294 0.0 1.7 0.00 0.00 0.00 60 1016.0
20260906065055 81 306 0.9 1.7 0.00 0.00 0.00 60 1016.0
20260906064551 80 278 0.0 0.9 0.00 0.00 0.00 60 1016.1
20260906064046 80 217 0.0 0.0 0.00 0.00 0.00 62 1015.9
20260906063541 81 205 0.0 0.0 0.00 0.00 0.00 62 1016.1
20260906063038 81 224 0.0 0.0 0.00 0.00 0.00 60 1016.2
20260906062532 81 202 0.9 0.9 0.00 0.00 0.00 61 1016.3
20260906062026 81 235 0.0 0.0 0.00 0.00 0.00 60 1016.0
20260906061523 81 269 0.0 0.9 0.00 0.00 0.00 59 1016.1
20260906061022 82 256 0.0 0.9 0.00 0.00 0.00 59 1016.1
20260906060519 82 265 0.9 0.9 0.00 0.00 0.00 59 1015.9
20260906060016 82 256 0.0 0.9 0.00 0.00 0.00 57 1016.0
20260906055512 83 255 0.0 0.9 0.00 0.00 0.00 58 1016.2
20260906055007 83 311 0.0 0.9 0.00 0.00 0.00 58 1016.2
20260906054506 82 230 0.0 0.0 0.00 0.00 0.00 57 1016.2
20260906054002 82 269 0.0 0.0 0.00 0.00 0.00 58 1016.1
20260906053458 82 254 1.7 1.7 0.00 0.00 0.00 57 1016.1
20260906052954 82 275 0.9 0.9 0.00 0.00 0.00 58 1016.0
20260906052450 82 251 0.9 0.9 0.00 0.00 0.00 57 1016.0
20260906051946 82 104 0.0 0.0 0.00 0.00 0.00 58 1016.0
20260906051441 83 315 0.0 0.0 0.00 0.00 0.00 57 1016.1
20260906050937 82 278 0.0 0.9 0.00 0.00 0.00 56 1015.9
20260906050437 83 230 0.0 0.0 0.00 0.00 0.00 57 1015.8
20260906045936 83 326 0.0 0.9 0.00 0.00 0.00 57 1015.8
20260906045435 82 255 0.0 0.9 0.00 0.00 0.00 58 1015.9
20260906044932 83 235 0.0 0.0 0.00 0.00 0.00 55 1016.0
20260906044431 83 237 0.9 1.7 0.00 0.00 0.00 56 1015.9
20260906043927 83 297 0.0 0.9 0.00 0.00 0.00 55 1015.9
20260906043423 82 351 0.9 0.9 0.00 0.00 0.00 56 1016.1
20260906042918 82 221 1.7 1.7 0.00 0.00 0.00 58 1016.1
20260906042417 82 224 0.0 0.0 0.00 0.00 0.00 58 1016.1
20260906041912 82 242 0.0 0.9 0.00 0.00 0.00 57 1016.0
20260906041409 83 255 0.0 0.0 0.00 0.00 0.00 55 1016.1
20260906040908 82 255 0.9 0.9 0.00 0.00 0.00 57 1015.9
20260906040403 82 269 0.0 0.9 0.00 0.00 0.00 57 1015.9
20260906035859 82 250 0.9 0.9 0.00 0.00 0.00 58 1015.9
20260906035354 82 269 0.0 0.0 0.00 0.00 0.00 56 1015.8
20260906034849 82 358 1.7 1.7 0.00 0.00 0.00 57 1015.9
20260906034344 82 235 0.0 0.0 0.00 0.00 0.00 55 1015.8
20260906033840 82 251 0.9 0.9 0.00 0.00 0.00 55 1015.9
20260906033339 83 235 0.0 0.0 0.00 0.00 0.00 57 1015.8
20260906032835 83 235 0.0 0.0 0.00 0.00 0.00 57 1015.8
20260906032331 83 257 0.0 0.9 0.00 0.00 0.00 55 1015.8
20260906031826 83 255 0.0 0.0 0.00 0.00 0.00 56 1015.9
20260906031321 83 294 0.0 1.7 0.00 0.00 0.00 56 1015.9
20260906030821 83 343 1.7 1.7 0.00 0.00 0.00 55 1016.0
20260906030316 82 142 0.0 0.0 0.00 0.00 0.00 56 1015.9
20260906025811 84 229 0.9 1.7 0.00 0.00 0.00 54 1015.9
20260906025306 84 321 0.0 0.0 0.00 0.00 0.00 53 1016.0
20260906024804 84 345 0.0 0.9 0.00 0.00 0.00 53 1015.7
20260906024303 84 238 0.0 0.9 0.00 0.00 0.00 53 1015.6
20260906023759 84 230 0.0 0.0 0.00 0.00 0.00 52 1015.7
20260906023254 84 243 0.0 0.9 0.00 0.00 0.00 53 1015.4
20260906022749 84 256 0.0 0.9 0.00 0.00 0.00 53 1015.4
20260906022244 84 239 0.9 1.7 0.00 0.00 0.00 52 1015.2
20260906021741 84 235 0.0 0.9 0.00 0.00 0.00 54 1015.2
20260906021240 84 218 0.0 0.9 0.00 0.00 0.00 52 1015.0
20260906020735 85 230 0.0 0.9 0.00 0.00 0.00 53 1015.0
20260906020234 85 224 0.0 0.0 0.00 0.00 0.00 52 1015.0
20260906015729 85 228 0.9 0.9 0.00 0.00 0.00 53 1014.8
20260906015227 85 224 0.0 0.9 0.00 0.00 0.00 52 1014.7
20260906014722 86 244 0.9 0.9 0.00 0.00 0.00 53 1014.7
20260906014218 86 290 0.0 0.9 0.00 0.00 0.00 52 1014.7
20260906013714 86 230 0.0 0.9 0.00 0.00 0.00 53 1014.6
20260906013214 87 297 0.0 0.0 0.00 0.00 0.00 49 1014.7
20260906012710 87 240 0.0 0.9 0.00 0.00 0.00 51 1014.5
20260906012210 87 235 0.0 0.0 0.00 0.00 0.00 50 1014.6
20260906011706 87 237 0.0 0.9 0.00 0.00 0.00 48 1014.6
20260906011205 88 269 0.0 0.9 0.00 0.00 0.00 51 1014.5
20260906010701 88 340 0.0 0.9 0.00 0.00 0.00 48 1014.4
20260906010157 88 284 0.0 0.9 0.00 0.00 0.00 48 1014.4
20260906005656 88 290 0.0 0.0 0.00 0.00 0.00 48 1014.2
20260906005156 88 284 0.0 0.9 0.00 0.00 0.00 49 1014.4
20260906004655 89 247 0.0 0.9 0.00 0.00 0.00 48 1014.5
20260906004150 89 293 0.0 1.7 0.00 0.00 0.00 47 1014.4
20260906003645 89 309 0.0 1.7 0.00 0.00 0.00 46 1014.4
20260906003141 90 269 0.0 0.0 0.00 0.00 0.00 47 1014.3
20260906002636 91 315 0.0 0.9 0.00 0.00 0.00 45 1014.5
20260906002130 91 326 0.0 0.0 0.00 0.00 0.00 45 1014.5
20260906001626 91 326 0.0 0.0 0.00 0.00 0.00 45 1014.2
20260906001125 92 315 0.0 0.0 0.00 0.00 0.00 44 1014.3
20260906000622 92 324 0.0 0.9 0.00 0.00 0.00 43 1014.2
20260906000117 93 286 0.9 0.9 0.00 0.00 0.00 43 1014.3
20260905235615 93 217 0.0 0.0 0.00 0.00 0.00 42 1014.3
20260905235111 94 329 0.0 0.9 0.00 0.00 0.00 42 1014.3
20260905234606 94 260 0.0 0.9 0.00 0.00 0.00 41 1014.3
20260905234101 95 293 0.9 0.9 0.00 0.00 0.00 41 1014.3
20260905233601 95 249 0.0 1.7 0.00 0.00 0.00 40 1014.5
20260905233056 95 234 0.0 0.9 0.00 0.00 0.00 41 1014.4
20260905232551 96 309 0.0 0.0 0.00 0.00 0.00 39 1014.4
20260905232047 96 142 0.9 1.7 0.00 0.00 0.00 38 1014.4
20260905231542 96 339 0.0 0.0 0.00 0.00 0.00 38 1014.4
20260905231038 96 206 0.0 1.7 0.00 0.00 0.00 37 1014.2
20260905230537 96 216 0.9 2.6 0.00 0.00 0.00 37 1014.2
20260905230036 96 307 0.9 1.7 0.00 0.00 0.00 38 1014.4
20260905225531 96 200 0.0 1.7 0.00 0.00 0.00 39 1014.4
20260905225027 96 180 1.7 2.6 0.00 0.00 0.00 38 1014.3
20260905224526 97 164 2.6 3.5 0.00 0.00 0.00 39 1014.3
20260905224026 97 122 1.7 4.3 0.00 0.00 0.00 38 1014.1
20260905223524 96 229 0.9 0.9 0.00 0.00 0.00 40 1014.2
20260905223020 96 192 1.7 2.6 0.00 0.00 0.00 38 1014.1
20260905222519 95 151 1.7 2.6 0.00 0.00 0.00 42 1014.3
20260905222014 95 84 0.9 1.7 0.00 0.00 0.00 41 1014.4
20260905221511 95 230 1.7 1.7 0.00 0.00 0.00 41 1014.2
20260905221007 95 277 0.9 1.7 0.00 0.00 0.00 40 1014.3
20260905220503 95 295 0.9 1.7 0.00 0.00 0.00 40 1014.5
20260905220002 95 339 1.7 1.7 0.00 0.00 0.00 40 1014.4
20260905215458 97 310 1.7 1.7 0.00 0.00 0.00 38 1014.5
20260905214954 97 252 0.0 1.7 0.00 0.00 0.00 37 1014.4
20260905214449 98 340 0.0 0.9 0.00 0.00 0.00 36 1014.5
20260905213949 98 3 1.7 4.3 0.00 0.00 0.00 36 1014.6
20260905213445 100 283 1.7 5.2 0.00 0.00 0.00 34 1014.5
20260905212940 101 288 1.7 3.5 0.00 0.00 0.00 34 1014.5
20260905212435 101 217 2.6 2.6 0.00 0.00 0.00 34 1014.6
20260905211934 100 126 2.6 6.1 0.00 0.00 0.00 35 1014.8
20260905211430 101 314 3.5 4.3 0.00 0.00 0.00 34 1014.5
20260905210926 100 100 2.6 5.2 0.00 0.00 0.00 35 1014.9
20260905210426 101 4 0.9 1.7 0.00 0.00 0.00 34 1015.0
20260905205926 101 211 0.0 1.7 0.00 0.00 0.00 35 1015.2
20260905205421 98 142 2.6 5.2 0.00 0.00 0.00 37 1015.4
20260905204920 98 152 0.0 0.9 0.00 0.00 0.00 37 1015.0
20260905204416 96 219 0.0 1.7 0.00 0.00 0.00 38 1015.3
20260905203915 96 281 0.9 0.9 0.00 0.00 0.00 41 1015.5
20260905203410 96 17 0.9 2.6 0.00 0.00 0.00 39 1015.5
20260905202906 96 232 0.9 1.7 0.00 0.00 0.00 39 1015.5
20260905202401 96 229 0.0 0.9 0.00 0.00 0.00 39 1015.7
20260905201856 97 184 0.9 1.7 0.00 0.00 0.00 39 1015.7
20260905201351 97 8 0.9 2.6 0.00 0.00 0.00 38 1015.7
20260905200845 97 175 0.0 3.5 0.00 0.00 0.00 37 1015.7
20260905200342 99 85 0.0 1.7 0.00 0.00 0.00 37 1015.7
20260905195840 97 245 0.0 1.7 0.00 0.00 0.00 38 1015.8
20260905195335 97 125 0.9 2.6 0.00 0.00 0.00 38 1015.9
20260905194831 99 254 3.5 3.5 0.00 0.00 0.00 36 1016.0
20260905194331 99 271 1.7 7.0 0.00 0.00 0.00 37 1015.9
20260905193829 101 71 1.7 2.6 0.00 0.00 0.00 35 1016.0
20260905193324 101 348 4.3 4.3 0.00 0.00 0.00 35 1016.1
20260905192820 100 88 2.6 3.5 0.00 0.00 0.00 35 1016.1
20260905192316 99 341 1.7 1.7 0.00 0.00 0.00 36 1016.3
20260905191815 97 279 1.7 2.6 0.00 0.00 0.00 39 1016.3
20260905191314 98 208 0.9 1.7 0.00 0.00 0.00 38 1016.4
20260905190813 99 205 1.7 3.5 0.00 0.00 0.00 38 1016.4
20260905190313 98 144 0.9 5.2 0.00 0.00 0.00 38 1016.7
20260905185812 99 204 0.0 3.5 0.00 0.00 0.00 38 1016.7
20260905185307 99 338 1.7 2.6 0.00 0.00 0.00 39 1016.7
20260905184801 96 229 1.7 2.6 0.00 0.00 0.00 41 1016.9
20260905184259 95 126 2.6 2.6 0.00 0.00 0.00 39 1016.8
20260905183758 95 280 2.6 2.6 0.00 0.00 0.00 40 1016.9
20260905183254 96 58 0.0 1.7 0.00 0.00 0.00 41 1017.0
20260905182753 96 30 3.5 3.5 0.00 0.00 0.00 41 1017.0